Location: Nairn
(57.5833°N, 3.8667°W)
Time: 15:38:24
(UTC+00:00)

Cosmos 783 Rocket - Pass Details

Date: 07 August 2020
Orbit: 757 x 781 km, 74.1° (Epoch: 23 September)

Event Time Altitude Azimuth Distance (km) Brightness Sun altitude
Rises 00:44:39 0° 329° (NNW) 3,237 8.6 -15.9°
Reaches altitude 10° 00:47:02 10° 327° (NNW) 2,310 7.7 -15.9°
Maximum altitude 00:52:15 70° 245° (WSW) 817 4.5 -15.8°
Enters shadow 00:55:31 23° 166° (SSE) 1,584 5.6 -15.7°
